TimeCDT,TemperatureF,Dew PointF,Humidity,Sea Level PressureIn,VisibilityMPH,Wind Direction,Wind SpeedMPH,Gust SpeedMPH,PrecipitationIn,Events,Conditions,WindDirDegrees,DateUTC
12:19 AM,73.4,69.8,88,29.94,10.0,SSE,3.5,-,N/A,,Partly Cloudy,160,2013-05-17 05:19:00
12:53 AM,73.0,70.0,90,29.94,9.0,South,4.6,-,N/A,,Scattered Clouds,170,2013-05-17 05:53:00
1:39 AM,73.4,69.8,88,29.93,8.0,South,3.5,-,N/A,,Mostly Cloudy,180,2013-05-17 06:39:00
1:53 AM,73.0,70.0,90,29.93,9.0,South,5.8,-,N/A,,Mostly Cloudy,180,2013-05-17 06:53:00
2:29 AM,73.4,69.8,88,29.92,8.0,South,4.6,-,N/A,,Mostly Cloudy,180,2013-05-17 07:29:00
2:53 AM,73.0,70.0,90,29.92,8.0,South,4.6,-,N/A,,Mostly Cloudy,180,2013-05-17 07:53:00
3:04 AM,73.4,69.8,88,29.93,7.0,South,3.5,-,N/A,,Scattered Clouds,170,2013-05-17 08:04:00
3:24 AM,73.4,69.8,88,29.92,7.0,South,4.6,-,N/A,,Mostly Cloudy,180,2013-05-17 08:24:00
3:33 AM,73.4,69.8,88,29.93,7.0,South,5.8,-,N/A,,Scattered Clouds,180,2013-05-17 08:33:00
3:50 AM,73.4,69.8,88,29.93,7.0,South,4.6,-,N/A,,Mostly Cloudy,180,2013-05-17 08:50:00
3:53 AM,73.0,70.0,90,29.93,7.0,South,4.6,-,N/A,,Mostly Cloudy,180,2013-05-17 08:53:00
4:01 AM,73.4,69.8,88,29.93,7.0,South,3.5,-,N/A,,Scattered Clouds,180,2013-05-17 09:01:00
4:11 AM,73.4,69.8,88,29.93,7.0,South,4.6,-,N/A,,Mostly Cloudy,180,2013-05-17 09:11:00
4:19 AM,73.4,69.8,88,29.93,7.0,South,3.5,-,N/A,,Mostly Cloudy,180,2013-05-17 09:19:00
4:42 AM,73.4,69.8,88,29.93,7.0,South,4.6,-,N/A,,Overcast,190,2013-05-17 09:42:00
4:53 AM,73.9,70.0,87,29.94,7.0,South,5.8,-,N/A,,Overcast,190,2013-05-17 09:53:00
5:16 AM,73.4,69.8,88,29.94,8.0,South,5.8,-,N/A,,Overcast,190,2013-05-17 10:16:00
5:24 AM,73.4,69.8,88,29.94,8.0,South,5.8,-,N/A,,Overcast,180,2013-05-17 10:24:00
5:53 AM,73.0,70.0,90,29.94,7.0,South,5.8,-,N/A,,Mostly Cloudy,190,2013-05-17 10:53:00
6:35 AM,73.4,71.6,94,29.95,5.0,South,5.8,-,N/A,,Overcast,190,2013-05-17 11:35:00
6:51 AM,73.4,71.6,94,29.95,6.0,South,8.1,-,N/A,,Overcast,180,2013-05-17 11:51:00
6:53 AM,73.4,71.6,94,29.95,6.0,South,8.1,-,N/A,,Overcast,180,2013-05-17 11:53:00
7:29 AM,75.2,71.6,89,29.95,7.0,South,8.1,-,N/A,,Mostly Cloudy,180,2013-05-17 12:29:00
7:53 AM,75.0,70.0,84,29.96,7.0,South,8.1,-,N/A,,Overcast,180,2013-05-17 12:53:00
8:01 AM,75.2,71.6,89,29.96,8.0,South,10.4,-,N/A,,Overcast,190,2013-05-17 13:01:00
8:53 AM,77.0,70.0,79,29.98,9.0,SSW,9.2,-,N/A,,Overcast,210,2013-05-17 13:53:00
9:00 AM,77.0,69.8,78,29.99,10.0,SSW,6.9,-,N/A,,Overcast,210,2013-05-17 14:00:00
9:53 AM,79.0,69.1,72,30.00,10.0,South,10.4,18.4,N/A,,Mostly Cloudy,180,2013-05-17 14:53:00
10:53 AM,81.0,70.0,69,30.01,10.0,South,9.2,-,N/A,,Mostly Cloudy,180,2013-05-17 15:53:00
11:53 AM,82.9,68.0,60,30.01,10.0,South,10.4,-,N/A,,Scattered Clouds,170,2013-05-17 16:53:00
12:53 PM,82.9,69.1,63,30.00,10.0,South,11.5,-,N/A,,Mostly Cloudy,180,2013-05-17 17:53:00
1:05 PM,82.4,69.8,66,29.99,10.0,South,11.5,-,N/A,,Mostly Cloudy,180,2013-05-17 18:05:00
1:53 PM,84.2,69.8,62,29.99,10.0,SSW,13.8,20.7,N/A,,Mostly Cloudy,200,2013-05-17 18:53:00
2:53 PM,84.0,70.0,63,29.97,10.0,South,10.4,20.7,N/A,,Mostly Cloudy,180,2013-05-17 19:53:00
3:29 PM,82.4,69.8,66,29.96,10.0,South,13.8,21.9,N/A,,Mostly Cloudy,170,2013-05-17 20:29:00
3:38 PM,82.4,69.8,66,29.96,10.0,South,9.2,19.6,N/A,,Mostly Cloudy,170,2013-05-17 20:38:00
3:53 PM,82.9,69.1,63,29.96,10.0,South,11.5,-,N/A,,Scattered Clouds,170,2013-05-17 20:53:00
4:06 PM,82.4,69.8,66,29.95,10.0,South,12.7,-,N/A,,Mostly Cloudy,180,2013-05-17 21:06:00
4:14 PM,82.4,69.8,66,29.95,10.0,South,11.5,-,N/A,,Mostly Cloudy,180,2013-05-17 21:14:00
4:49 PM,82.4,68.0,62,29.95,10.0,South,12.7,-,N/A,,Mostly Cloudy,190,2013-05-17 21:49:00
4:53 PM,82.9,69.1,63,29.95,10.0,SSW,11.5,-,N/A,,Mostly Cloudy,200,2013-05-17 21:53:00
5:53 PM,82.9,66.9,58,29.95,10.0,South,8.1,-,N/A,,Clear,180,2013-05-17 22:53:00
6:53 PM,81.0,69.1,67,29.96,10.0,SSW,11.5,-,N/A,,Clear,200,2013-05-17 23:53:00
7:53 PM,78.1,71.1,79,29.97,10.0,South,6.9,-,N/A,,Partly Cloudy,180,2013-05-18 00:53:00
8:53 PM,75.9,72.0,87,29.98,9.0,South,6.9,-,N/A,,Clear,170,2013-05-18 01:53:00
9:30 PM,75.2,71.6,89,29.99,8.0,South,6.9,-,N/A,,Partly Cloudy,170,2013-05-18 02:30:00
9:50 PM,75.2,71.6,89,30.00,8.0,South,5.8,-,N/A,,Mostly Cloudy,170,2013-05-18 02:50:00
9:53 PM,75.0,72.0,90,30.00,7.0,South,6.9,-,N/A,,Mostly Cloudy,180,2013-05-18 02:53:00
10:08 PM,75.2,71.6,89,30.01,7.0,South,5.8,-,N/A,,Scattered Clouds,180,2013-05-18 03:08:00
10:53 PM,75.0,72.0,90,30.01,6.0,South,6.9,-,N/A,,Partly Cloudy,180,2013-05-18 03:53:00
11:10 PM,75.2,71.6,89,30.01,6.0,South,5.8,-,N/A,,Mostly Cloudy,170,2013-05-18 04:10:00
11:19 PM,75.2,71.6,89,30.01,6.0,South,3.5,-,N/A,,Scattered Clouds,170,2013-05-18 04:19:00
11:53 PM,75.0,72.0,90,30.01,6.0,South,4.6,-,N/A,,Scattered Clouds,170,2013-05-18 04:53:00